Weather History for KLBF - April, 2013

Change the Weather History Date:

Monday, April 8, 2013

  Actual Average Record
Temperature  
Mean Temperature 54 °F 45 °F  
Max Temperature 75 °F 60 °F 90 °F (1887)
Min Temperature 33 °F 30 °F 11 °F (2003)
Degree Days  
Heating Degree Days 11 20  
Month to date heating degree days 132 169  
Since 1 July heating degree days 5965 6034  
Cooling Degree Days 0 0  
Month to date cooling degree days 0 0  
Year to date cooling degree days 0 0  
Growing Degree Days 5 (Base 50)    
Moisture  
Dew Point 40 °F    
Average Humidity 62    
Maximum Humidity 100    
Minimum Humidity 23    
Precipitation  
Precipitation 0.38 in 0.06 in 0.69 in (1882)
Month to date precipitation 0.58 0.44  
Year to date precipitation 2.35 2.33  
Snow  
Snow 0.00 in 0.10 in 6.20 in (1961)
Month to date snowfall 0.0 1.2  
Since 1 July snowfall 22.6 26.5  
Snow Depth 0.00 in    
Sea Level Pressure  
Sea Level Pressure 29.62 in    
Wind  
Wind Speed 14 mph (ENE)    
Max Wind Speed 47 mph    
Max Gust Speed 60 mph    
Visibility 9 miles    
Events Rain , Thunderstorm    
T = Trace of Precipitation, MM = Missing Value Source: NWS Daily Summary

Daily Weather History Graph

Daily Weather History Graph

Search for Another Location

Airport or City:

Trip Planner

Search our weather history database for the weather conditions in past years. The results will help you decide how hot, cold, wet, or windy it might be!

Date:

Astronomy

Apr. 08, 2013 Rise Set
Actual Time 7:14 AM CDT 8:15 PM CDT
Civil Twilight 6:45 AM CDT 8:43 PM CDT
Nautical Twilight 6:12 AM CDT 9:17 PM CDT
Astronomical Twilight 5:37 AM CDT 9:52 PM CDT
Moon 6:05 AM CDT (4/8) 6:51 PM CDT (4/8)
Length of Visible Light 13h 57m
Length of Day
13h 01m
Waning Crescent, 3% of the Moon is Illuminated
Apr 8
Waning Crescent
Apr 10
New
Apr 18
First Quarter
Apr 25
Full
May 2
Last Quarter

Hourly Weather History & Observations

Time (CDT) Temp. Windchill Dew Point Humidity Pressure Visibility Wind Dir Wind Speed Gust Speed Precip Events Conditions
12:53 AM 46.9 °F - 43.0 °F 86% 29.65 in 10.0 mi South 6.9 mph - N/A   Clear
1:53 AM 48.0 °F - 43.0 °F 83% 29.65 in 10.0 mi SSE 6.9 mph - N/A   Clear
2:53 AM 48.0 °F - 43.0 °F 83% 29.63 in 10.0 mi SSE 4.6 mph - N/A   Clear
3:53 AM 45.0 °F - 41.0 °F 86% 29.63 in 10.0 mi Calm Calm - N/A   Clear
4:53 AM 44.1 °F 40.1 °F 41.0 °F 89% 29.60 in 10.0 mi East 6.9 mph - 0.00 in   Scattered Clouds
5:53 AM 45.0 °F 42.6 °F 41.0 °F 86% 29.60 in 10.0 mi SSE 4.6 mph - N/A   Clear
6:53 AM 37.9 °F - 37.0 °F 97% 29.63 in 9.0 mi Calm Calm - N/A   Clear
7:33 AM 35.6 °F 32.8 °F 33.8 °F 93% 29.63 in 1.8 mi NW 3.5 mph - N/A   Clear
7:46 AM 37.4 °F - 35.6 °F 93% 29.63 in 3.0 mi Calm Calm - N/A   Clear
7:53 AM 37.0 °F - 36.0 °F 96% 29.64 in 7.0 mi Calm Calm - N/A   Clear
8:53 AM 46.9 °F - 42.1 °F 83% 29.65 in 10.0 mi Calm Calm - N/A   Clear
9:53 AM 51.1 °F - 43.0 °F 74% 29.65 in 10.0 mi Calm Calm - N/A   Clear
10:53 AM 59.0 °F - 44.1 °F 58% 29.64 in 10.0 mi Calm Calm - N/A   Clear
11:53 AM 66.0 °F - 41.0 °F 40% 29.62 in 10.0 mi Calm Calm - N/A   Clear
12:53 PM 70.0 °F - 37.9 °F 31% 29.60 in 10.0 mi Variable 5.8 mph - N/A   Clear
1:53 PM 73.0 °F - 37.0 °F 27% 29.57 in 10.0 mi East 10.4 mph - N/A   Clear
2:53 PM 73.0 °F - 36.0 °F 26% 29.55 in 10.0 mi SE 11.5 mph 18.4 mph N/A   Clear
3:53 PM 75.0 °F - 35.1 °F 23% 29.53 in 10.0 mi ESE 11.5 mph 20.7 mph N/A   Clear
4:53 PM 72.0 °F - 39.0 °F 30% 29.51 in 10.0 mi ESE 21.9 mph 32.2 mph N/A   Clear
5:53 PM 68.0 °F - 52.0 °F 56% 29.52 in 10.0 mi ESE 21.9 mph 26.5 mph N/A   Clear
6:38 PM 62.6 °F - 53.6 °F 72% 29.61 in 10.0 mi ESE 17.3 mph 23.0 mph N/A   Mostly Cloudy
6:53 PM 60.1 °F - 43.0 °F 53% 29.61 in 10.0 mi ENE 19.6 mph 28.8 mph N/A   Overcast
7:00 PM 57.2 °F - 42.8 °F 59% 29.61 in 10.0 mi NE 24.2 mph 29.9 mph N/A   Overcast
7:30 PM 51.8 °F - 42.8 °F 71% 29.64 in 9.0 mi NE 23.0 mph 39.1 mph 0.00 in Rain Light Rain
7:50 PM 48.2 °F - 42.8 °F 82% 29.63 in 9.0 mi NNE 32.2 mph 39.1 mph 0.00 in   Overcast
7:53 PM 48.9 °F - 42.1 °F 77% 29.65 in 9.0 mi NNE 28.8 mph 39.1 mph 0.00 in   Overcast
8:35 PM 46.4 °F 37.2 °F 42.8 °F 87% 29.64 in 9.0 mi NNE 29.9 mph 42.6 mph 0.00 in Rain Light Rain
8:43 PM 46.4 °F 37.9 °F 42.8 °F 87% 29.63 in 9.0 mi NNE 25.3 mph 41.4 mph 0.00 in Rain , Thunderstorm Light Rain
8:51 PM 46.4 °F 36.7 °F 42.8 °F 87% 29.63 in 7.0 mi NNE 33.4 mph 46.0 mph 0.00 in Rain , Thunderstorm Light Rain
8:53 PM 46.0 °F 36.4 °F 43.0 °F 89% 29.64 in 6.0 mi NNE 32.2 mph 46.0 mph 0.00 in Rain , Thunderstorm Light Rain
9:06 PM 44.6 °F 34.6 °F 42.8 °F 93% 29.65 in 2.5 mi NNE 31.1 mph 40.3 mph 0.08 in Rain , Thunderstorm Heavy Thunderstorms and Rain
9:16 PM 44.6 °F 34.7 °F 42.8 °F 93% 29.66 in 3.0 mi NNE 29.9 mph 40.3 mph 0.11 in Rain , Thunderstorm Rain
9:53 PM 43.0 °F 32.2 °F 39.9 °F 89% 29.64 in 5.0 mi NNE 32.2 mph 43.7 mph 0.18 in Rain , Thunderstorm Light Rain
10:23 PM 39.2 °F 27.8 °F 35.6 °F 87% 29.68 in 10.0 mi NNE 27.6 mph 46.0 mph 0.00 in Rain Light Rain
10:33 PM 39.2 °F 26.6 °F 35.6 °F 87% 29.67 in 10.0 mi NNE 34.5 mph 43.7 mph 0.01 in Rain Light Rain
10:53 PM 37.0 °F 23.7 °F 34.0 °F 89% 29.68 in 10.0 mi NE 34.5 mph 48.3 mph 0.01 in Rain Light Rain
11:53 PM 34.0 °F 19.9 °F 30.9 °F 89% 29.68 in 5.0 mi NNE 32.2 mph 49.5 mph 0.05 in Rain Light Rain